Regional Weather Roundup
Issued by NWS

Current Version | Previous Version | Text Only | Print | Product List | Glossary On
Versions: 1 2 3 4 5 6 7 8 9 10 11 12 13 14 15 16 17 18 19 20 21 22 23 24 25 26 27 28 29 30 31 32 33 34 35 36 37 38 39 40 41 42 43 44 45 46 47 48 49 50
000
ASUS45 KREV 150910
RWRNV
NEVADA REGIONAL WEATHER ROUNDUP
NATIONAL WEATHER SERVICE RENO NV
200 AM PDT MON SEP 15 2014

NOTE: "FAIR" INDICATES FEW OR NO CLOUDS BELOW 12,000 FEET WITH NO
SIGNIFICANT WEATHER AND/OR OBSTRUCTIONS TO VISIBILITY.

NVZ001-003-004-151000-
WESTERN NEVADA

CITY           SKY/WX    TMP DP  RH WIND       PRES   REMARKS
RENO           CLEAR     64  39  39 CALM      30.08S
CARSON CITY    FAIR      57  37  47 CALM      30.10R
MINDEN         FAIR      54  37  54 CALM      30.11S
FALLON         PTCLDY    63  33  32 S8        30.03S
LOVELOCK       CLOUDY    59  30  33 NE3       30.03R
HAWTHORNE      PTCLDY    68  39  34 CALM      30.07R
$$

NVZ002-CAZ072-073-151000-
NORTHERN AND CENTRAL SIERRA

CITY           SKY/WX    TMP DP  RH WIND       PRES   REMARKS
S. LAKE TAHOE  PTCLDY    48  37  65 CALM      30.19S
TRUCKEE        PTCLDY    45  36  70 CALM      30.19S
SQUAW VLY 8000 NOT AVBL
SUSANVILLE     CLEAR     57  34  41 W5        30.06
BLUE CANYON    CLOUDY    68  36  30 E3        30.12S HAZE
MAMMOTH LAKES  FAIR      48  36  61 N3        30.27S
BRIDGEPORT     FAIR      48  34  58 CALM      30.23R
$$

NVZ030-031-036-151000-
NORTHERN NEVADA

CITY           SKY/WX    TMP DP  RH WIND       PRES   REMARKS
ELKO           CLEAR     47  29  49 CALM      30.12R
WINNEMUCCA     PTCLDY    53  29  39 CALM      30.06R
WENDOVER       PTCLDY    64  32  29 CALM      30.04S
$$

NVZ035-037-151000-
CENTRAL NEVADA

CITY           SKY/WX    TMP DP  RH WIND       PRES   REMARKS
ELY            CLEAR     50  33  52 S6        30.19S
EUREKA           N/A     50  28  42 S5        30.16S
$$

NVZ013-014-151000-
SOUTH CENTRAL NEVADA

CITY           SKY/WX    TMP DP  RH WIND       PRES   REMARKS
TONOPAH        MOCLDY    63  35  35 N13       30.13S
$$

NVZ017-020-022-151000-
SOUTHERN NEVADA

CITY           SKY/WX    TMP DP  RH WIND       PRES   REMARKS
LAS VEGAS      CLEAR     83  47  28 S9        29.84S
N. LAS VEGAS   CLEAR     82  48  30 CALM      29.87R
NELLIS AFB     NOT AVBL
HENDERSON      CLEAR     82  47  29 S12       29.91R
MERCURY        CLEAR     78  39  24 NE6       29.95R
$$


USA.gov is the U.S. government's official web portal to all federal, state and local government web resources and services.